User: anonymous   Login
Location: Unspecified
(0.0000°N, 0.0000°E)
Time: 23:08:07
(UTC+00:00)
Language:

HODOYOSHI 1 - Orbit

View from above orbital plane
View from above orbital plane
View from above satellite
View from above satellite

Ground track
Ground track

The orbit data is extracted from the following two-line orbital elements,

1 40299U 14070B   21023.71615666  .00000726  00000-0  32389-4 0  9996
2 40299  97.3028 101.1268 0014035 133.5438 343.9596 15.24430981345361
Epoch (UTC): 23 January 2021 17:11:15
Eccentricity: 0.0014035
inclination: 97.3028°
perigee height: 483 km
apogee height: 502 km
right ascension of ascending node: 101.1268°
argument of perigee: 133.5438°
revolutions per day: 15.24430981
mean anomaly at epoch: 343.9596°
orbit number at epoch: 34536

The dashed part of the orbit path shows where the satellite is in the earth's shadow,  

DLR